| time (UTC) | temp F | wind direction | speed MPH | gust MPH | rain 1hr in | rain 24hr in | rain mn in | humidity % | barometer mb |
| 20260904193045 | 88 | 72 | 0.0 | 2.0 | 0.00 | 0.00 | 0.00 | 40 | 1008.4 |
| 20260904191543 | 86 | 119 | 0.0 | 9.0 | 0.00 | 0.00 | 0.00 | 40 | 1008.7 |
| 20260904190041 | 86 | 157 | 0.0 | 2.0 | 0.00 | 0.00 | 0.00 | 39 | 1009.0 |
| 20260904184603 | 87 | 122 | 0.0 | 3.0 | 0.00 | 0.00 | 0.00 | 39 | 1009.1 |
| 20260904183041 | 86 | 105 | 0.0 | 3.0 | 0.00 | 0.00 | 0.00 | 40 | 1009.3 |
| 20260904181535 | 85 | 161 | 0.0 | 5.0 | 0.00 | 0.00 | 0.00 | 44 | 1009.4 |
| 20260904180028 | 84 | 162 | 0.0 | 1.0 | 0.00 | 0.00 | 0.00 | 46 | 1009.8 |
| 20260904174557 | 83 | 134 | 0.0 | 1.0 | 0.00 | 0.00 | 0.00 | 47 | 1010.2 |
| 20260904173022 | 82 | 66 | 0.0 | 0.0 | 0.00 | 0.00 | 0.00 | 55 | 1010.3 |
| 20260904171519 | 80 | 92 | 0.0 | 0.0 | 0.00 | 0.00 | 0.00 | 59 | 1010.2 |
| 20260904170049 | 79 | 141 | 0.0 | 0.0 | 0.00 | 0.00 | 0.00 | 61 | 1010.4 |
| 20260904164541 | 78 | 87 | 0.0 | 0.0 | 0.00 | 0.00 | 0.00 | 67 | 1010.2 |
| 20260904163049 | 76 | 146 | 0.0 | 0.0 | 0.00 | 0.00 | 0.00 | 69 | 1010.0 |
| 20260904161533 | 75 | 82 | 0.0 | 0.0 | 0.00 | 0.00 | 0.00 | 72 | 1010.0 |
| 20260904160029 | 73 | 87 | 0.0 | 0.0 | 0.00 | 0.00 | 0.00 | 79 | 1010.0 |
| 20260904154524 | 71 | 82 | 0.0 | 1.0 | 0.00 | 0.00 | 0.00 | 88 | 1010.1 |
| 20260904153107 | 68 | 72 | 0.0 | 0.0 | 0.00 | 0.00 | 0.00 | 98 | 1010.2 |
| 20260904151549 | 67 | 94 | 0.0 | 0.0 | 0.00 | 0.00 | 0.00 | 98 | 1010.3 |
| 20260904150041 | 65 | 103 | 0.0 | 0.0 | 0.00 | 0.00 | 0.00 | 98 | 1010.3 |
| 20260904144542 | 65 | 103 | 0.0 | 0.0 | 0.00 | 0.00 | 0.00 | 98 | 1010.4 |
| 20260904143038 | 64 | 97 | 0.0 | 0.0 | 0.00 | 0.00 | 0.00 | 98 | 1010.6 |
| 20260904141536 | 63 | 80 | 0.0 | 0.0 | 0.00 | 0.00 | 0.00 | 98 | 1010.7 |
| 20260904140030 | 62 | 75 | 0.0 | 0.0 | 0.00 | 0.00 | 0.00 | 98 | 1010.7 |
| 20260904134528 | 61 | 67 | 0.0 | 0.0 | 0.00 | 0.00 | 0.00 | 98 | 1010.7 |
| 20260904133025 | 60 | 50 | 0.0 | 0.0 | 0.00 | 0.00 | 0.00 | 98 | 1010.7 |
| 20260904131524 | 59 | 64 | 0.0 | 0.0 | 0.00 | 0.00 | 0.00 | 98 | 1010.7 |
| 20260904130020 | 57 | 22 | 0.0 | 0.0 | 0.00 | 0.00 | 0.00 | 98 | 1010.7 |
| 20260904124523 | 0 | 0.0 | 0.0 | 0.00 | 0.00 | 0.00 | 1010.6 | ||
| 20260904123011 | 0 | 0.0 | 0.0 | 0.00 | 0.00 | 0.00 | 1010.5 | ||
| 20260904121510 | 0 | 0.0 | 0.0 | 0.00 | 0.00 | 0.00 | 1010.4 | ||
| 20260904120112 | 0 | 0.0 | 0.0 | 0.00 | 0.00 | 0.00 | 1010.6 | ||
| 20260904114532 | 0 | 0.0 | 0.0 | 0.00 | 0.00 | 0.00 | 1010.7 | ||
| 20260904113030 | 0 | 0.0 | 0.0 | 0.00 | 0.00 | 0.00 | 1010.4 | ||
| 20260904111520 | 0 | 0.0 | 0.0 | 0.00 | 0.00 | 0.00 | 1010.5 | ||
| 20260904110016 | 0 | 0.0 | 0.0 | 0.00 | 0.00 | 0.00 | 1010.5 | ||
| 20260904104512 | 0 | 0.0 | 0.0 | 0.00 | 0.00 | 0.00 | 1010.6 | ||
| 20260904103007 | 0 | 0.0 | 0.0 | 0.00 | 0.00 | 0.00 | 1010.6 | ||
| 20260904101500 | 0 | 0.0 | 0.0 | 0.00 | 0.00 | 0.00 | 1010.4 | ||
| 20260904100059 | 51 | 30 | 0.0 | 0.0 | 0.00 | 0.00 | 0.00 | 97 | 1010.3 |
| 20260904094602 | 51 | 32 | 0.0 | 0.0 | 0.00 | 0.00 | 0.00 | 98 | 1010.0 |
| 20260904093100 | 52 | 31 | 0.0 | 0.0 | 0.00 | 0.00 | 0.00 | 98 | 1009.6 |
| 20260904091551 | 52 | 32 | 0.0 | 0.0 | 0.00 | 0.00 | 0.00 | 98 | 1009.5 |
| 20260904090050 | 53 | 31 | 0.0 | 0.0 | 0.00 | 0.00 | 0.00 | 98 | 1009.2 |
| 20260904084550 | 54 | 32 | 0.0 | 0.0 | 0.00 | 0.00 | 0.00 | 98 | 1008.9 |
| 20260904083049 | 53 | 192 | 0.0 | 0.0 | 0.00 | 0.00 | 0.00 | 98 | 1008.9 |
| 20260904081518 | 51 | 192 | 0.0 | 0.0 | 0.00 | 0.00 | 0.00 | 98 | 1009.1 |
| 20260904080018 | 51 | 192 | 0.0 | 0.0 | 0.00 | 0.00 | 0.00 | 97 | 1009.0 |
| 20260904074546 | 52 | 192 | 0.0 | 0.0 | 0.00 | 0.00 | 0.00 | 98 | 1009.2 |
| 20260904073053 | 53 | 245 | 0.0 | 0.0 | 0.00 | 0.00 | 0.00 | 98 | 1009.2 |
| 20260904071541 | 53 | 245 | 0.0 | 0.0 | 0.00 | 0.00 | 0.00 | 97 | 1009.0 |
| 20260904070040 | 52 | 245 | 0.0 | 0.0 | 0.00 | 0.00 | 0.00 | 97 | 1008.7 |
| 20260904064536 | 54 | 139 | 0.0 | 0.0 | 0.00 | 0.00 | 0.00 | 98 | 1008.6 |
| 20260904063039 | 53 | 158 | 0.0 | 0.0 | 0.00 | 0.00 | 0.00 | 97 | 1008.5 |
| 20260904061509 | 53 | 158 | 0.0 | 0.0 | 0.00 | 0.00 | 0.00 | 97 | 1008.5 |
| 20260904060006 | 52 | 158 | 0.0 | 0.0 | 0.00 | 0.00 | 0.00 | 97 | 1008.5 |
| 20260904054602 | 53 | 158 | 0.0 | 0.0 | 0.00 | 0.00 | 0.00 | 97 | 1008.5 |
| 20260904053138 | 54 | 158 | 0.0 | 0.0 | 0.00 | 0.00 | 0.00 | 97 | 1008.4 |
| 20260904051601 | 54 | 158 | 0.0 | 0.0 | 0.00 | 0.00 | 0.00 | 97 | 1008.5 |
| 20260904050059 | 53 | 158 | 0.0 | 0.0 | 0.00 | 0.00 | 0.00 | 96 | 1008.4 |
| 20260904044554 | 54 | 158 | 0.0 | 0.0 | 0.00 | 0.00 | 0.00 | 95 | 1008.1 |
| 20260904043052 | 57 | 156 | 0.0 | 0.0 | 0.00 | 0.00 | 0.00 | 97 | 1008.1 |
| 20260904041600 | 56 | 165 | 0.0 | 0.0 | 0.00 | 0.00 | 0.00 | 95 | 1008.2 |
| 20260904040047 | 56 | 213 | 0.0 | 0.0 | 0.00 | 0.00 | 0.00 | 95 | 1008.0 |
| 20260904034541 | 58 | 213 | 0.0 | 0.0 | 0.00 | 0.00 | 0.00 | 96 | 1007.8 |
| 20260904033047 | 57 | 212 | 0.0 | 0.0 | 0.00 | 0.00 | 0.00 | 95 | 1007.8 |
| 20260904031538 | 57 | 181 | 0.0 | 0.0 | 0.00 | 0.00 | 0.00 | 94 | 1007.7 |
| 20260904030034 | 58 | 181 | 0.0 | 0.0 | 0.00 | 0.00 | 0.00 | 93 | 1007.5 |
| 20260904024502 | 60 | 52 | 0.0 | 0.0 | 0.00 | 0.00 | 0.00 | 95 | 1007.1 |
| 20260904023059 | 60 | 52 | 0.0 | 0.0 | 0.00 | 0.00 | 0.00 | 93 | 1006.9 |
| 20260904021551 | 60 | 52 | 0.0 | 0.0 | 0.00 | 0.00 | 0.00 | 92 | 1006.7 |
| 20260904020059 | 62 | 52 | 0.0 | 0.0 | 0.00 | 0.00 | 0.00 | 89 | 1006.3 |
| 20260904014620 | 64 | 52 | 0.0 | 0.0 | 0.00 | 0.00 | 0.00 | 85 | 1006.0 |
| 20260904013046 | 67 | 52 | 0.0 | 0.0 | 0.00 | 0.00 | 0.00 | 82 | 1005.8 |
| 20260904011543 | 70 | 52 | 0.0 | 0.0 | 0.00 | 0.00 | 0.00 | 81 | 1005.7 |
| 20260904010043 | 72 | 52 | 0.0 | 0.0 | 0.00 | 0.00 | 0.00 | 76 | 1005.7 |
| 20260904004541 | 75 | 52 | 0.0 | 0.0 | 0.00 | 0.00 | 0.00 | 71 | 1005.5 |
| 20260904003048 | 77 | 52 | 0.0 | 0.0 | 0.00 | 0.00 | 0.00 | 69 | 1005.4 |
| 20260904001538 | 79 | 65 | 0.0 | 0.0 | 0.00 | 0.00 | 0.00 | 63 | 1005.3 |
| 20260904000037 | 81 | 218 | 0.0 | 0.0 | 0.00 | 0.00 | 0.00 | 62 | 1005.2 |
| 20260903234533 | 79 | 219 | 0.0 | 0.0 | 0.00 | 0.00 | 0.00 | 65 | 1005.4 |
| 20260903233032 | 79 | 198 | 0.0 | 0.0 | 0.00 | 0.00 | 0.00 | 66 | 1005.2 |
| 20260903231628 | 78 | 97 | 0.0 | 0.0 | 0.00 | 0.00 | 0.00 | 66 | 1005.1 |
| 20260903230106 | 77 | 58 | 0.0 | 0.0 | 0.00 | 0.00 | 0.00 | 70 | 1004.8 |
| 20260903224557 | 76 | 98 | 0.0 | 0.0 | 0.00 | 0.00 | 0.00 | 71 | 1004.7 |
| 20260903223050 | 76 | 85 | 0.0 | 0.0 | 0.00 | 0.00 | 0.00 | 72 | 1004.7 |
| 20260903221549 | 75 | 87 | 0.0 | 0.0 | 0.00 | 0.00 | 0.00 | 74 | 1004.5 |
| 20260903220050 | 74 | 107 | 0.0 | 0.0 | 0.00 | 0.00 | 0.00 | 76 | 1004.2 |
| 20260903214546 | 73 | 89 | 0.0 | 0.0 | 0.00 | 0.00 | 0.00 | 77 | 1004.2 |
| 20260903213048 | 74 | 107 | 0.0 | 0.0 | 0.00 | 0.00 | 0.00 | 76 | 1004.2 |
| 20260903211538 | 73 | 66 | 0.0 | 0.0 | 0.00 | 0.00 | 0.00 | 79 | 1004.3 |
| 20260903210037 | 72 | 73 | 0.0 | 0.0 | 0.00 | 0.00 | 0.00 | 79 | 1004.1 |
| 20260903204534 | 71 | 60 | 0.0 | 0.0 | 0.00 | 0.00 | 0.00 | 80 | 1004.0 |
| 20260903203029 | 70 | 6 | 0.0 | 0.0 | 0.00 | 0.00 | 0.00 | 83 | 1004.1 |
| 20260903201532 | 69 | 17 | 0.0 | 0.0 | 0.00 | 0.00 | 0.00 | 86 | 1004.2 |
| 20260903200023 | 67 | 12 | 0.0 | 0.0 | 0.00 | 0.00 | 0.00 | 87 | 1004.1 |
| 20260903194522 | 67 | 15 | 0.0 | 0.0 | 0.00 | 0.00 | 0.00 | 88 | 1004.5 |